Location: Ammerl�gen
(47.2167°N, 9.6000°E)
Time: 15:52:19
(UTC+00:00)

Envisat - Pass Details

Date: 28 September 2021
Orbit: 764 x 766 km, 98.2° (Epoch: 19 October)

Event Time Altitude Azimuth Distance (km) Brightness Sun altitude
Rises 03:44:53 0° 22° (NNE) 3,242 6.8 -16.2°
Reaches altitude 10° 03:47:30 10° 34° (NNE) 2,311 6.2 -15.8°
Maximum altitude 03:51:56 30° 94° (E) 1,363 5.1 -15.1°
Drops below altitude 10° 03:56:19 10° 155° (SSE) 2,295 5.6 -14.3°
Sets 03:58:53 0° 166° (SSE) 3,216 6.3 -13.9°
